Location: Unspecified
(38.9820°N, 94.4650°W)
Time: 04:15:43
(UTC-05:00)

CZ-3 Stage 3 - Visible Passes

Search period start: 06 May 2016 00:00
Search period end: 16 May 2016 00:00
Orbit: 405 x 34799 km, 30.3° (Epoch: 03 May)

Date Brightness Start Highest point End Pass type
(mag) Time Alt. Az. Time Alt. Az. Time Alt. Az.
06 May 4.6 03:03:13 10° WSW 03:31:25 39° S 03:36:37 10° ESE visible
06 May 6.7 17:18:23 10° SSE 00:01:36 - E 23:36:24 31° SSE visible
09 May 4.5 02:54:06 10° WSW 03:23:04 41° S 03:28:16 10° ESE visible
09 May 6.6 17:07:18 10° SSE 23:30:49 33° SSE 23:32:32 33° SSE visible
12 May 4.5 02:44:57 10° WSW 03:14:43 42° S 03:19:55 10° ESE visible
12 May 6.6 16:55:56 10° SSE 23:22:48 34° SSE 23:28:38 33° SSE visible
15 May 4.4 02:35:49 10° WSW 03:06:21 43° S 03:11:33 10° ESE visible
15 May 6.6 16:44:17 10° SSE 23:14:44 35° SSE 23:24:45 31° SE visible
